Weather History for Ciudad Victoria, Mexico

Change the Weather History Date:

Tuesday, March 12, 2013

  Actual Average Record
Temperature  
Mean Temperature 70 °F -  
Max Temperature 82 °F 86 °F 96 °F (2001)
Min Temperature 46 °F 63 °F 46 °F (2013)
Cooling Degree Days 4    
Growing Degree Days 20 (Base 50)    
Moisture  
Dew Point 38 °F    
Average Humidity 37    
Maximum Humidity 67    
Minimum Humidity 14    
Precipitation  
Precipitation 0.00 in - - ()
Sea Level Pressure  
Sea Level Pressure 30.14 in    
Wind  
Wind Speed 4 mph ()    
Max Wind Speed 17 mph    
Max Gust Speed -    
Visibility 7.1 miles    
Events      
Averages and records for this station are not official NWS values.
T = Trace of Precipitation, MM = Missing Value Source: Averaged Metar Reports

Daily Weather History Graph

Daily Weather History Graph

Search for Another Location

Airport:

Trip Planner

Search our weather history database for the weather conditions in past years. The results will help you decide how hot, cold, wet, or windy it might be!

Date:

Astronomy

Mar. 12, 2013 Rise Set
Actual Time 6:47 AM CST 6:43 PM CST
Civil Twilight 6:24 AM CST 7:06 PM CST
Nautical Twilight 5:58 AM CST 7:32 PM CST
Astronomical Twilight 5:32 AM CST 7:58 PM CST
Moon 7:05 AM CST (3/12) 7:46 PM CST (3/12)
Length of Visible Light 12h 41m
Length of Day
11h 56m
New Moon, 1% of the Moon is Illuminated
Mar 12
New Moon
Mar 19
First Quarter
Mar 27
Full
Apr 2
Last Quarter
Apr 10
New

Hourly Weather History & Observations

Time (CST) Temp. Windchill Dew Point Humidity Pressure Visibility Wind Dir Wind Speed Gust Speed Precip Events Conditions
2:50 AM 49 °F - 37 °F 53% 30.14 in 4 mi Calm Calm - -  
5:45 AM 49 °F - 41 °F 67% 30.15 in 4 mi Calm Calm - -  
6:03 AM 46.4 °F - 32.0 °F 57% 30.15 in 8.0 mi SW 2.3 mph - N/A   Partly Cloudy
6:42 AM 46.4 °F 45.2 °F 30.2 °F 53% 30.12 in 8.0 mi West 3.5 mph - N/A   Partly Cloudy
7:42 AM 51.8 °F - 33.8 °F 50% 30.15 in 8.0 mi North 4.6 mph - N/A   Mostly Cloudy
8:43 AM 57.2 °F - 35.6 °F 44% 30.21 in 8.0 mi NNW 2.3 mph - N/A   Mostly Cloudy
8:50 AM 56 °F - 45 °F 57% 30.24 in 6 mi Calm Calm - -   Clear
9:40 AM 64.4 °F - 37.4 °F 37% 30.19 in 8.0 mi Calm Calm - N/A   Overcast
10:50 AM 71.6 °F - 39.2 °F 31% 30.17 in 8.0 mi SSE 9.2 mph - N/A   Overcast
11:44 AM 93.2 °F - 37.4 °F 14% 30.18 in 8.0 mi SE 11.5 mph - N/A   Overcast
11:50 AM 76 °F - 46 °F 24% 30.22 in 6 mi NE 2.2 mph - -   Clear
12:49 PM 77.0 °F - 32.0 °F 19% 30.12 in 8.0 mi South 11.5 mph - N/A   Overcast
1:42 PM 80.6 °F - 30.2 °F 16% 30.08 in 8.0 mi East 3.5 mph - N/A   Overcast
2:41 PM 80.6 °F - 26.6 °F 14% 30.08 in 8.0 mi South 11.5 mph - N/A   Overcast
3:40 PM 80.6 °F - 30.2 °F 16% 30.04 in 8.0 mi East 9.2 mph - N/A   Overcast
4:42 PM 80.6 °F - 33.8 °F 18% 30.04 in 8.0 mi ESE 9.2 mph - N/A   Overcast
5:43 PM 78.8 °F - 35.6 °F 21% 30.07 in 8.0 mi ENE 17.3 mph - N/A   Overcast
6:40 PM 73.4 °F - 42.8 °F 33% 30.09 in 8.0 mi East 12.7 mph - N/A   Overcast
7:43 PM 69.8 °F - 44.6 °F 40% 30.12 in 8.0 mi East 10.4 mph - N/A   Scattered Clouds
8:44 PM 68.0 °F - 46.4 °F 46% 30.18 in 8.0 mi East 8.1 mph - N/A   Scattered Clouds
8:45 PM 71 °F - 54 °F 44% 30.18 in 4 mi East 2.2 mph - -   Scattered Clouds
11:45 PM 64 °F - 54 °F 63% 30.24 in 4 mi North 2.2 mph - -